Location: Davayat
(45.9471°N, 3.1105°E)
Time: 14:47:27
(UTC+00:00)

Cosmos 1943 Rocket - Visible Passes

Search period start: 12 April 2021 00:00
Search period end: 22 April 2021 00:00
Orbit: 811 x 844 km, 71.0° (Epoch: 11 April)

Date Brightness Start Highest point End Pass type
(mag) Time Alt. Az. Time Alt. Az. Time Alt. Az.
12 Apr 3.1 04:18:17 10° S 04:23:44 51° ESE 04:29:12 10° NE visible
13 Apr 3.3 03:59:12 10° S 04:04:33 45° ESE 04:09:55 10° NE visible
14 Apr 3.5 03:40:09 10° S 03:45:22 40° ESE 03:50:36 10° NE visible
15 Apr 3.6 03:21:08 10° S 03:26:12 35° ESE 03:31:16 10° NE visible
16 Apr 3.8 03:02:08 10° SSE 03:07:01 31° ESE 03:11:57 10° NE visible
17 Apr 3.9 02:43:11 10° SSE 02:47:52 27° ESE 02:52:34 10° NE visible
17 Apr 2.5 04:25:50 10° SW 04:31:19 50° WNW 04:36:50 10° NNE visible
18 Apr 4.0 02:24:37 11° SSE 02:28:43 24° ESE 02:33:11 10° NE visible
18 Apr 2.4 04:06:30 10° SW 04:12:04 56° WNW 04:17:39 10° NNE visible
19 Apr 4.2 02:06:12 13° SE 02:09:34 21° E 02:13:44 10° NE visible
19 Apr 2.3 03:47:45 13° SW 03:52:49 63° WNW 03:58:26 10° NNE visible
20 Apr 4.3 01:47:43 14° SE 01:50:26 19° E 01:54:16 10° ENE visible
20 Apr 2.2 03:29:16 18° SW 03:33:34 71° WNW 03:39:14 10° NNE visible
21 Apr 4.3 01:29:11 14° ESE 01:31:18 17° E 01:34:43 10° ENE visible
21 Apr 2.2 03:10:43 23° SSW 03:14:20 80° WNW 03:20:01 10° NNE visible
